This is the latest recevied weather packets stored in our database for station/object M0TJX-1. If no packets are shown the sender has not sent any weather packets the latest 10 day(s).
| Time | Temp. | Humidity | Pressure | Rain* | Wind** | Luminosity | Snow |
|---|---|---|---|---|---|---|---|
| 1777221810 | 18.33° C | 38% | 1023.4 hPa | 0 mm | - | - | - |
| 1777220910 | 18.89° C | 37% | 1023.5 hPa | 0 mm | - | - | - |
| 1777220010 | 18.89° C | 37% | 1023.4 hPa | 0 mm | - | - | - |
| 1777219110 | 18.89° C | 36% | 1023.5 hPa | 0 mm | - | - | - |
| 1777218210 | 19.44° C | 35% | 1023.6 hPa | 0 mm | - | - | - |
| 1777217310 | 19.44° C | 34% | 1023.7 hPa | 0 mm | - | - | - |
| 1777216410 | 19.44° C | 35% | 1023.7 hPa | 0 mm | - | - | - |
| 1777215510 | 20° C | 32% | 1023.7 hPa | 0 mm | - | - | - |
| 1777214610 | 20° C | 32% | 1024 hPa | 0 mm | - | - | - |
| 1777213710 | 19.44° C | 36% | 1024 hPa | 0 mm | - | - | - |
| 1777212810 | 19.44° C | 30% | 1024.1 hPa | 0 mm | - | - | - |
| 1777211910 | 19.44° C | 30% | 1024.1 hPa | 0 mm | - | - | - |
| 1777211010 | 20° C | 30% | 1024.1 hPa | 0 mm | - | - | - |
| 1777210110 | 20° C | 29% | 1024 hPa | 0 mm | - | - | - |
| 1777209210 | 19.44° C | 29% | 1024.3 hPa | 0 mm | - | - | - |
| 1777208310 | 18.89° C | 31% | 1024.4 hPa | 0 mm | - | - | - |
| 1777207410 | 19.44° C | 30% | 1024.3 hPa | 0 mm | - | - | - |
| 1777206510 | 19.44° C | 30% | 1024.4 hPa | 0 mm | - | - | - |
| 1777205610 | 18.89° C | 29% | 1024.5 hPa | 0 mm | - | - | - |
| 1777204711 | 18.89° C | 31% | 1024.5 hPa | 0 mm | - | - | - |
| 1777203810 | 18.89° C | 32% | 1024.6 hPa | 0 mm | - | - | - |
| 1777202910 | 18.33° C | 33% | 1024.6 hPa | 0 mm | - | - | - |
| 1777202010 | 18.33° C | 41% | 1024.6 hPa | 0 mm | - | - | - |
| 1777201865 | 18.33° C | 41% | 1024.7 hPa | 0 mm | - | - | - |
| 1777201110 | 18.33° C | 41% | 1024.7 hPa | 0 mm | - | - | - |
* Rain latest hour (hover to see other rain measurements)
** Current wind speed in m/s (hover to see current wind gust speed)